Location: Unspecified
(34.1750°S, 150.8048°E)
Time: 06:51:48
(UTC+11:00)

RS-15 - Visible Passes

Search period start: 03 March 2024 00:00
Search period end: 13 March 2024 00:00
Orbit: 1893 x 2151 km, 64.8° (Epoch: 02 March)

Date Brightness Start Highest point End Pass type
(mag) Time Alt. Az. Time Alt. Az. Time Alt. Az.
03 Mar 9.5 00:49:38 10° SSW 00:59:06 25° SE 01:08:40 10° E visible
03 Mar 8.0 03:01:21 10° SSW 03:13:34 83° ESE 03:25:56 10° NNE visible
03 Mar 8.9 05:16:01 10° SW 05:24:39 23° W 05:33:22 10° NNW visible
03 Mar 10.1 21:58:23 10° SSW 22:02:23 12° S 22:06:28 10° SSE visible
04 Mar 9.7 00:13:45 10° SSW 00:22:04 21° SSE 00:30:31 10° ESE visible
04 Mar 8.3 02:25:19 10° SSW 02:37:25 67° ESE 02:41:10 49° ENE visible
04 Mar 8.6 04:38:54 10° SW 04:58:38 12° NNW 04:59:19 10° NNW visible
04 Mar 10.1 21:19:53 10° SW 21:24:50 13° SSW 21:29:53 10° SSE visible
04 Mar 9.9 23:37:48 10° SSW 23:44:52 17° SSE 23:52:02 10° ESE visible
05 Mar 8.6 01:49:22 10° SSW 02:01:08 53° SE 02:03:33 48° E visible
05 Mar 8.5 04:02:13 10° SW 04:26:47 - N 04:11:05 41° W visible
05 Mar 10.0 20:41:16 10° SW 20:47:24 15° SSW 20:53:42 10° SSE visible
05 Mar 10.0 23:01:44 10° SSW 23:07:29 14° SSE 23:13:18 10° SE visible
06 Mar 8.9 01:13:27 10° SSW 01:24:42 42° SE 01:26:57 39° ESE visible
06 Mar 8.4 03:25:48 10° SW 03:34:33 49° WSW 03:34:33 49° WSW visible
06 Mar 10.0 20:02:50 10° WSW 20:10:08 19° SSW 20:17:42 10° SSE visible
06 Mar 10.0 22:25:25 10° SSW 22:29:57 12° S 22:34:33 10° SSE visible
07 Mar 9.1 00:37:34 10° SSW 00:48:06 33° SE 00:50:47 30° ESE visible
07 Mar 8.3 02:49:33 10° SSW 02:58:25 56° SW 02:58:25 56° SW visible
07 Mar 10.0 21:48:32 10° SSW 21:52:19 12° S 21:56:11 10° SSE visible
08 Mar 9.4 00:01:41 10° SSW 00:11:18 26° SE 00:14:53 23° ESE visible
08 Mar 8.3 02:13:25 10° SSW 02:22:32 59° SSW 02:22:32 59° SSW visible
08 Mar 9.5 04:28:18 10° WSW 04:30:12 14° WSW 04:30:12 14° WSW visible
08 Mar 10.0 21:10:45 10° SSW 21:14:42 12° S 21:18:41 10° SSE visible
08 Mar 9.6 23:25:48 10° SSW 23:34:19 21° SSE 23:39:10 17° ESE visible
09 Mar 8.4 01:37:24 10° SSW 01:46:50 57° S 01:46:50 57° S visible
09 Mar 9.4 03:51:06 10° SW 03:54:30 19° WSW 03:54:30 19° WSW visible
09 Mar 10.0 20:32:19 10° SW 20:37:07 13° SSW 20:42:01 10° SSE visible
09 Mar 9.8 22:49:51 10° SSW 22:57:08 17° SSE 23:03:35 11° ESE visible
10 Mar 8.6 01:01:25 10° SSW 01:11:15 51° SSE 01:11:15 51° SSE visible
10 Mar 9.2 03:14:22 10° SW 03:18:56 25° SW 03:18:56 25° SW visible
10 Mar 10.0 19:53:41 10° SW 19:59:40 15° SSW 20:05:48 10° SSE visible
10 Mar 9.9 22:13:49 10° SSW 22:19:46 15° SSE 22:25:47 10° SE visible
11 Mar 8.8 00:25:30 10° SSW 00:35:47 42° SE 00:35:47 42° SE visible
11 Mar 9.0 02:37:55 10° SW 02:43:28 32° SW 02:43:28 32° SW visible
11 Mar 9.9 21:37:33 10° SSW 21:42:15 13° SSE 21:47:01 10° SE visible
11 Mar 9.0 23:49:37 10° SSW 00:00:16 34° SE 00:00:23 34° SE visible
12 Mar 8.9 02:01:39 10° SSW 02:08:05 39° SW 02:08:05 39° SW visible
12 Mar 9.9 21:00:45 10° SSW 21:04:38 12° S 21:08:35 10° SSE visible
12 Mar 9.2 23:13:44 10° SSW 23:23:30 27° SE 23:25:04 27° SE visible
